Starlink 2521

operational
NORAD ID: 48648 Int'l Des: 2021-044 Owner: SPXS Country: US Constellation: starlink
LEOCIRCULARSTARLINK_TYPE

About Starlink 2521

Description loading...

Live Position

Loading 3D Globe...

Upcoming Passes

Altitude History

Altitude vs Time

uPlot chart will show altitude changes over time

Two-Line Element Set

1 48648U 21044L 25350.71282494 -.00000013 00000-0 18045-4 0 9990
2 48648 53.0547 134.2796 0001273 91.2207 268.8928 15.06393700251209
Epoch: Dec 16, 2025 • Age: 15 hours

Current Status

Altitude 552.6 km
Velocity 7.59 km/s
Sub-Earth Point 51.67°N, 35.9°E
Launch Date May 26, 2021
Age 4.5 years
Type internet

Technical Details

Classification Payload
Mass 260.00 kg
Dry Mass 248.00 kg
Total Mass 260.00 kg
Length 0.20 m
Diameter 2.80 m
Span 9.00 m
Shape Box + pan
Manufacturer SPXS
Bus Type Starlink
Phase Status In Orbit
Owner/State SPXS/US

Large Constellations

Loading constellations...